This is the latest recevied weather packets stored in our database for station/object KF4UQS-14. If no packets are shown the sender has not sent any weather packets the latest 1 day(s).
| Time | Temp. | Humidity | Pressure | Rain* | Wind** | Luminosity | Snow |
|---|---|---|---|---|---|---|---|
| 1778017914 | 25.56° C | 54% | 1014.7 hPa | 0 mm | 4.02 m/s, 184° | 116 W/m² | - |
| 1778017611 | 26.11° C | 51% | 1014.3 hPa | 0 mm | 4.02 m/s, 197° | 264 W/m² | - |
| 1778017309 | 25.56° C | 51% | 1014.6 hPa | 0 mm | 2.68 m/s, 202° | 274 W/m² | - |
| 1778017006 | 25.56° C | 51% | 1014.6 hPa | 0 mm | 2.68 m/s, 208° | 245 W/m² | - |
| 1778016703 | 26.11° C | 50% | 1014.6 hPa | 0 mm | 6.26 m/s, 190° | 234 W/m² | - |
| 1778016398 | 26.11° C | 50% | 1014.5 hPa | 0 mm | 3.13 m/s, 190° | 234 W/m² | - |
| 1778016096 | 26.11° C | 48% | 1014.7 hPa | 0 mm | 3.13 m/s, 226° | 322 W/m² | - |
| 1778015793 | 26.11° C | 48% | 1014.4 hPa | 0 mm | 4.47 m/s, 187° | 339 W/m² | - |
| 1778015491 | 26.67° C | 47% | 1014.6 hPa | 0 mm | 7.6 m/s, 192° | 364 W/m² | - |
| 1778015187 | 26.67° C | 47% | 1014.5 hPa | 0 mm | 3.58 m/s, 225° | 377 W/m² | - |
| 1778014884 | 27.22° C | 46% | 1014.4 hPa | 0 mm | 4.02 m/s, 202° | 391 W/m² | - |
| 1778014581 | 27.22° C | 45% | 1014.3 hPa | 0 mm | 2.68 m/s, 197° | 406 W/m² | - |
| 1778014279 | 26.67° C | 45% | 1014.5 hPa | 0 mm | 6.26 m/s, 196° | 422 W/m² | - |
| 1778013976 | 26.67° C | 44% | 1014.4 hPa | 0 mm | 5.36 m/s, 167° | 431 W/m² | - |
| 1778013674 | 26.67° C | 44% | 1014.4 hPa | 0 mm | 5.81 m/s, 192° | 451 W/m² | - |
| 1778013370 | 27.22° C | 43% | 1014.5 hPa | 0 mm | 4.92 m/s, 197° | 469 W/m² | - |
| 1778013067 | 26.67° C | 44% | 1014.6 hPa | 0 mm | 4.92 m/s, 190° | 485 W/m² | - |
| 1778012763 | 27.22° C | 44% | 1014.8 hPa | 0 mm | 6.26 m/s, 189° | 493 W/m² | - |
| 1778012459 | 26.67° C | 45% | 1014.7 hPa | 0 mm | 4.47 m/s, 172° | 474 W/m² | - |
| 1778012156 | 26.67° C | 44% | 1014.7 hPa | 0 mm | 4.47 m/s, 176° | 510 W/m² | - |
| 1778011854 | 26.67° C | 44% | 1015 hPa | 0 mm | 2.68 m/s, 213° | 532 W/m² | - |
| 1778011551 | 26.67° C | 44% | 1015.3 hPa | 0 mm | 4.47 m/s, 210° | 543 W/m² | - |
| 1778011248 | 27.22° C | 44% | 1015.2 hPa | 0 mm | 5.81 m/s, 192° | 537 W/m² | - |
| 1778010944 | 27.22° C | 44% | 1015.1 hPa | 0 mm | 4.47 m/s, 185° | 569 W/m² | - |
| 1778010642 | 27.22° C | 45% | 1015.3 hPa | 0 mm | 4.02 m/s, 167° | 579 W/m² | - |
* Rain latest hour (hover to see other rain measurements)
** Current wind speed in m/s (hover to see current wind gust speed)